,,Stat6,,Stat2,,Stat8,,Stat9,,Stat10,,Wind1,,Wind1,
time,status,PA1M_AVG,status,PR1M_SUM,status,RH1M_AVG,status,SR1M_AVG,status,TA1M_AVG,status,W1dAve1m,status,W1sAve1m,
2004-12-28, 00:00:00,VALID,918.337,VALID,0,VALID,99.4853,VALID,0.0849042,VALID,19.7442,VALID,132,VALID,1.76065,
2004-12-28, 00:01:00,VALID,918.317,VALID,0,VALID,99.5005,VALID,0.0849042,VALID,19.744,VALID,124,VALID,1.47461,
2004-12-28, 00:02:00,VALID,918.324,VALID,0,VALID,99.5387,VALID,0.0339617,VALID,19.7343,VALID,120,VALID,1.09489,
2004-12-28, 00:03:00,VALID,918.312,VALID,0,VALID,99.6239,VALID,0.0169808,VALID,19.7285,VALID,131,VALID,1.002,
2004-12-28, 00:04:00,VALID,918.31,VALID,0,VALID,99.6607,VALID,-0.0679233,VALID,19.7166,VALID,130,VALID,1.22368,
2004-12-28, 00:05:00,VALID,918.299,VALID,0,VALID,99.6849,VALID,-0.0679233,VALID,19.7171,VALID,120,VALID,1.19829,
2004-12-28, 00:06:00,VALID,918.3,VALID,0,VALID,99.7205,VALID,-0.0509425,VALID,19.7037,VALID,126,VALID,0.974516,
2004-12-28, 00:07:00,VALID,918.307,VALID,0,VALID,99.6824,VALID,-0.0339617,VALID,19.7035,VALID,119,VALID,1.10387,
2004-12-28, 00:08:00,VALID,918.312,VALID,0.2,VALID,99.634,VALID,-0.0679233,VALID,19.7007,VALID,145,VALID,1.41441,
2004-12-28, 00:09:00,VALID,918.306,VALID,0,VALID,99.6747,VALID,-0.0509425,VALID,19.7208,VALID,156,VALID,0.701029,
2004-12-28, 00:10:00,VALID,918.308,VALID,0,VALID,99.6671,VALID,-0.0849042,VALID,19.7037,VALID,139,VALID,1.02525,
2004-12-28, 00:11:00,VALID,918.297,VALID,0,VALID,99.5679,VALID,-0.0509425,VALID,19.691,VALID,121,VALID,1.82724,
2004-12-28, 00:12:00,VALID,918.31,VALID,0,VALID,99.5056,VALID,-0.0849042,VALID,19.7169,VALID,123,VALID,1.61009,
2004-12-28, 00:13:00,VALID,918.308,VALID,0,VALID,99.4878,VALID,-0.0679233,VALID,19.7201,VALID,117,VALID,1.43329,
2004-12-28, 00:14:00,VALID,918.31,VALID,0,VALID,99.456,VALID,-0.0339617,VALID,19.7233,VALID,126,VALID,1.6873,
2004-12-28, 00:15:00,VALID,918.3,VALID,0,VALID,99.5196,VALID,-0.0849042,VALID,19.7164,VALID,77,VALID,0.91806,
2004-12-28, 00:16:00,VALID,918.294,VALID,0,VALID,99.5895,VALID,-0.0679233,VALID,19.7266,VALID,116,VALID,0.997523,
2004-12-28, 00:17:00,VALID,918.288,VALID,0,VALID,99.6874,VALID,-0.0339617,VALID,19.7134,VALID,97,VALID,1.15439,
2004-12-28, 00:18:00,VALID,918.272,VALID,0,VALID,99.779,VALID,-0.0679233,VALID,19.6908,VALID,116,VALID,1.02891,
2004-12-28, 00:19:00,VALID,918.251,VALID,0,VALID,99.9036,VALID,-0.0509425,VALID,19.6744,VALID,103,VALID,0.900641,
2004-12-28, 00:20:00,VALID,918.233,VALID,0,VALID,99.9977,VALID,-0.0339617,VALID,19.6617,VALID,127,VALID,1.04306,
2004-12-28, 00:21:00,VALID,918.208,VALID,0,VALID,100,VALID,-0.0339617,VALID,19.6284,VALID,126,VALID,1.23772,
2004-12-28, 00:22:00,VALID,918.176,VALID,0,VALID,100,VALID,-0.0339617,VALID,19.6123,VALID,130,VALID,1.2793,
2004-12-28, 00:23:00,VALID,918.189,VALID,0,VALID,100,VALID,-0.0509425,VALID,19.6163,VALID,126,VALID,1.14262,
2004-12-28, 00:24:00,VALID,918.174,VALID,0,VALID,100,VALID,-0.0679233,VALID,19.6068,VALID,122,VALID,1.30948,
2004-12-28, 00:25:00,VALID,918.157,VALID,0,VALID,100,VALID,-0.101885,VALID,19.5971,VALID,118,VALID,0.900391,
2004-12-28, 00:26:00,VALID,918.165,VALID,0,VALID,100,VALID,-0.0849042,VALID,19.6006,VALID,108,VALID,1.07755,
2004-12-28, 00:27:00,VALID,918.166,VALID,0,VALID,100,VALID,-0.0679233,VALID,19.6006,VALID,84,VALID,0.9375,
2004-12-28, 00:28:00,VALID,918.166,VALID,0,VALID,100,VALID,-0.0679233,VALID,19.5941,VALID,106,VALID,1.1369,
2004-12-28, 00:29:00,VALID,918.189,VALID,0.2,VALID,99.999,VALID,-0.0679233,VALID,19.5874,VALID,106,VALID,0.831659,
2004-12-28, 00:30:00,VALID,918.188,VALID,0,VALID,99.9756,VALID,-0.0849042,VALID,19.5844,VALID,102,VALID,0.93045,
2004-12-28, 00:31:00,VALID,918.18,VALID,0,VALID,99.943,VALID,-0.0679233,VALID,19.5743,VALID,99,VALID,0.769985,
2004-12-28, 00:32:00,VALID,918.191,VALID,0,VALID,99.8973,VALID,-0.0679233,VALID,19.5812,VALID,92,VALID,1.01726,
2004-12-28, 00:33:00,VALID,918.196,VALID,0,VALID,99.8451,VALID,-0.0679233,VALID,19.5777,VALID,103,VALID,1.01349,
2004-12-28, 00:34:00,VALID,918.184,VALID,0,VALID,99.8248,VALID,-0.0509425,VALID,19.5882,VALID,86,VALID,0.931046,
2004-12-28, 00:35:00,VALID,918.185,VALID,0,VALID,99.8922,VALID,-0.0849042,VALID,19.578,VALID,75,VALID,0.491806,
2004-12-28, 00:36:00,VALID,918.172,VALID,0,VALID,99.8858,VALID,-0.0679233,VALID,19.5713,VALID,102,VALID,0.79178,
2004-12-28, 00:37:00,VALID,918.181,VALID,0,VALID,99.9517,VALID,-0.0849042,VALID,19.5713,VALID,124,VALID,0.124047,
2004-12-28, 00:38:00,VALID,918.169,VALID,0,VALID,99.999,VALID,-0.0679233,VALID,19.5685,VALID,123,VALID,0.166797,
2004-12-28, 00:39:00,VALID,918.166,VALID,0,VALID,100,VALID,-0.0849042,VALID,19.5554,VALID,122,VALID,0.185454,
2004-12-28, 00:40:00,VALID,918.169,VALID,0,VALID,100,VALID,-0.101885,VALID,19.5621,VALID,122,VALID,0,
2004-12-28, 00:41:00,VALID,918.163,VALID,0,VALID,100,VALID,-0.0849042,VALID,19.5425,VALID,122,VALID,0,
2004-12-28, 00:42:00,VALID,918.154,VALID,0,VALID,100,VALID,-0.0679233,VALID,19.5325,VALID,122,VALID,0.211483,
2004-12-28, 00:43:00,VALID,918.138,VALID,0,VALID,100,VALID,-0.0849042,VALID,19.5166,VALID,122,VALID,0.206499,
2004-12-28, 00:44:00,VALID,918.121,VALID,0,VALID,100,VALID,-0.0849042,VALID,19.5102,VALID,122,VALID,0.354725,
2004-12-28, 00:45:00,VALID,918.11,VALID,0,VALID,100,VALID,-0.0679233,VALID,19.5039,VALID,122,VALID,0.287946,
2004-12-28, 00:46:00,VALID,918.097,VALID,0,VALID,100,VALID,-0.0679233,VALID,19.491,VALID,122,VALID,0.185243,
2004-12-28, 00:47:00,VALID,918.085,VALID,0,VALID,100,VALID,-0.0509425,VALID,19.4746,VALID,122,VALID,0.233665,
2004-12-28, 00:48:00,VALID,918.077,VALID,0,VALID,100,VALID,-0.0509425,VALID,19.4585,VALID,194,VALID,0.393714,
2004-12-28, 00:49:00,VALID,918.066,VALID,0,VALID,100,VALID,-0.0679233,VALID,19.4356,VALID,231,VALID,0.402253,
2004-12-28, 00:50:00,VALID,918.051,VALID,0,VALID,100,VALID,-0.0849042,VALID,19.4163,VALID,240,VALID,0.431108,
2004-12-28, 00:51:00,VALID,918.047,VALID,0.2,VALID,100,VALID,-0.0849042,VALID,19.4003,VALID,240,VALID,0.257449,
2004-12-28, 00:52:00,VALID,918.022,VALID,0,VALID,100,VALID,-0.0509425,VALID,19.3837,VALID,245,VALID,0.373547,
2004-12-28, 00:53:00,VALID,918.019,VALID,0,VALID,100,VALID,-0.0679233,VALID,19.3643,VALID,256,VALID,0.212054,
2004-12-28, 00:54:00,VALID,918.012,VALID,0,VALID,100,VALID,-0.0849042,VALID,19.3681,VALID,256,VALID,0.0131392,
2004-12-28, 00:55:00,VALID,917.987,VALID,0,VALID,100,VALID,-0.0679233,VALID,19.3519,VALID,256,VALID,0.132102,
2004-12-28, 00:56:00,VALID,917.961,VALID,0,VALID,100,VALID,-0.101885,VALID,19.3164,VALID,256,VALID,0.318714,
2004-12-28, 00:57:00,VALID,917.937,VALID,0,VALID,100,VALID,-0.101885,VALID,19.3064,VALID,260,VALID,0.3125,
2004-12-28, 00:58:00,VALID,917.92,VALID,0,VALID,100,VALID,-0.0849042,VALID,19.3102,VALID,264,VALID,0.317406,
2004-12-28, 00:59:00,VALID,917.901,VALID,0,VALID,100,VALID,-0.0679233,VALID,19.3129,VALID,264,VALID,0.292333,
2004-12-28, 01:00:00,VALID,917.891,VALID,0,VALID,100,VALID,-0.0849042,VALID,19.3164,VALID,334,VALID,0.533736,
2004-12-28, 01:01:00,VALID,917.877,VALID,0,VALID,100,VALID,-0.0849042,VALID,19.3293,VALID,351,VALID,0.349479,
2004-12-28, 01:02:00,VALID,917.863,VALID,0,VALID,100,VALID,-0.101885,VALID,19.3266,VALID,351,VALID,0.209449,
2004-12-28, 01:03:00,VALID,917.846,VALID,0,VALID,100,VALID,-0.0509425,VALID,19.3099,VALID,351,VALID,0.0579268,
2004-12-28, 01:04:00,VALID,917.831,VALID,0,VALID,100,VALID,0,VALID,19.3152,VALID,351,VALID,0.00093006,
2004-12-28, 01:05:00,VALID,917.796,VALID,0,VALID,100,VALID,0.0169808,VALID,19.2958,VALID,351,VALID,0.0718006,
2004-12-28, 01:06:00,VALID,917.782,VALID,0,VALID,100,VALID,0,VALID,19.2829,VALID,351,VALID,0.379972,
2004-12-28, 01:07:00,VALID,917.753,VALID,0,VALID,100,VALID,0,VALID,19.2762,VALID,352,VALID,0.522166,
2004-12-28, 01:08:00,VALID,917.729,VALID,0,VALID,100,VALID,0,VALID,19.2536,VALID,13,VALID,0.667151,
2004-12-28, 01:09:00,VALID,917.7,VALID,0,VALID,100,VALID,0,VALID,19.2476,VALID,18,VALID,0.624467,
2004-12-28, 01:10:00,VALID,917.68,VALID,0,VALID,100,VALID,0,VALID,19.2406,VALID,19,VALID,0.47154,
2004-12-28, 01:11:00,VALID,917.671,VALID,0,VALID,100,VALID,0.0169808,VALID,19.2411,VALID,19,VALID,0.087391,
2004-12-28, 01:12:00,VALID,917.642,VALID,0,VALID,100,VALID,0,VALID,19.2215,VALID,19,VALID,0.0976563,
2004-12-28, 01:13:00,VALID,917.63,VALID,0,VALID,100,VALID,0.0169808,VALID,19.218,VALID,19,VALID,0.138808,
2004-12-28, 01:14:00,VALID,917.616,VALID,0,VALID,100,VALID,0,VALID,19.2019,VALID,19,VALID,0.376817,
2004-12-28, 01:15:00,VALID,917.604,VALID,0,VALID,100,VALID,0.0339617,VALID,19.2051,VALID,19,VALID,0.473656,
2004-12-28, 01:16:00,VALID,917.577,VALID,0,VALID,100,VALID,0.0509425,VALID,19.2088,VALID,19,VALID,0.52939,
2004-12-28, 01:17:00,VALID,917.567,VALID,0,VALID,100,VALID,0.0169808,VALID,19.1989,VALID,27,VALID,0.777539,
2004-12-28, 01:18:00,VALID,917.532,VALID,0,VALID,100,VALID,0,VALID,19.1733,VALID,31,VALID,0.941679,
2004-12-28, 01:19:00,VALID,917.521,VALID,0,VALID,100,VALID,-0.101885,VALID,19.1551,VALID,32,VALID,0.874414,
2004-12-28, 01:20:00,VALID,917.516,VALID,0,VALID,100,VALID,-0.101885,VALID,19.1395,VALID,33,VALID,0.880664,
2004-12-28, 01:21:00,VALID,917.488,VALID,0,VALID,100,VALID,-0.101885,VALID,19.1171,VALID,31,VALID,0.731585,
2004-12-28, 01:22:00,VALID,917.476,VALID,0,VALID,100,VALID,-0.101885,VALID,19.094,VALID,31,VALID,0.738554,
2004-12-28, 01:23:00,VALID,917.461,VALID,0,VALID,100,VALID,-0.101885,VALID,19.094,VALID,31,VALID,0.5875,
2004-12-28, 01:24:00,VALID,917.438,VALID,0,VALID,100,VALID,-0.101885,VALID,19.0816,VALID,31,VALID,0.597202,
2004-12-28, 01:25:00,VALID,917.423,VALID,0,VALID,100,VALID,-0.101885,VALID,19.0682,VALID,31,VALID,0.563902,
2004-12-28, 01:26:00,VALID,917.41,VALID,0,VALID,100,VALID,-0.0849042,VALID,19.0816,VALID,32,VALID,0.537109,
2004-12-28, 01:27:00,VALID,917.389,VALID,0,VALID,100,VALID,-0.101885,VALID,19.0585,VALID,32,VALID,0.384859,
2004-12-28, 01:28:00,VALID,917.367,VALID,0,VALID,100,VALID,-0.101885,VALID,19.0426,VALID,32,VALID,0.273983,
2004-12-28, 01:29:00,VALID,917.356,VALID,0,VALID,100,VALID,-0.101885,VALID,19.0331,VALID,32,VALID,0.280469,
2004-12-28, 01:30:00,VALID,917.341,VALID,0,VALID,100,VALID,-0.0849042,VALID,19.0329,VALID,32,VALID,0.341933,
2004-12-28, 01:31:00,VALID,917.328,VALID,0,VALID,100,VALID,-0.118866,VALID,19.0361,VALID,32,VALID,0.528764,
2004-12-28, 01:32:00,VALID,917.331,VALID,0,VALID,100,VALID,-0.101885,VALID,19.0205,VALID,30,VALID,0.701982,
2004-12-28, 01:33:00,VALID,917.326,VALID,0,VALID,100,VALID,-0.0679233,VALID,19.0066,VALID,21,VALID,0.811357,
2004-12-28, 01:34:00,VALID,917.305,VALID,0,VALID,100,VALID,0,VALID,18.9895,VALID,12,VALID,0.715216,
2004-12-28, 01:35:00,VALID,917.315,VALID,0,VALID,100,VALID,0,VALID,18.9664,VALID,12,VALID,0.68022,
2004-12-28, 01:36:00,VALID,917.305,VALID,0,VALID,100,VALID,0,VALID,18.9671,VALID,12,VALID,0.515434,
2004-12-28, 01:37:00,VALID,917.292,VALID,0,VALID,100,VALID,0,VALID,18.948,VALID,13,VALID,0.276042,
2004-12-28, 01:38:00,VALID,917.286,VALID,0,VALID,100,VALID,0,VALID,18.951,VALID,12,VALID,0.120536,
2004-12-28, 01:39:00,VALID,917.292,VALID,0,VALID,100,VALID,0,VALID,18.9411,VALID,13,VALID,0.174592,
2004-12-28, 01:40:00,VALID,917.282,VALID,0.2,VALID,100,VALID,0,VALID,18.9311,VALID,12,VALID,0.314276,
2004-12-28, 01:41:00,VALID,917.267,VALID,0,VALID,100,VALID,0,VALID,18.9314,VALID,12,VALID,0.214939,
2004-12-28, 01:42:00,VALID,917.24,VALID,0,VALID,100,VALID,-0.0169808,VALID,18.912,VALID,12,VALID,0.172461,
2004-12-28, 01:43:01,VALID,917.216,VALID,0,VALID,100,VALID,0,VALID,18.9222,VALID,12,VALID,0.379883,
2004-12-28, 01:44:00,VALID,917.199,VALID,0,VALID,100,VALID,0,VALID,18.9318,VALID,12,VALID,0.0327381,
2004-12-28, 01:45:00,VALID,917.196,VALID,0,VALID,100,VALID,-0.0169808,VALID,18.9321,VALID,12,VALID,0.15952,
2004-12-28, 01:46:00,VALID,917.17,VALID,0,VALID,100,VALID,0,VALID,18.9219,VALID,12,VALID,0.051669,
2004-12-28, 01:47:01,VALID,917.161,VALID,0,VALID,100,VALID,-0.0169808,VALID,18.9192,VALID,12,VALID,0.125572,
2004-12-28, 01:48:00,VALID,917.143,VALID,0,VALID,100,VALID,0,VALID,18.9159,VALID,12,VALID,0.00163517,
2004-12-28, 01:49:00,VALID,917.13,VALID,0,VALID,100,VALID,-0.0169808,VALID,18.9157,VALID,12,VALID,0,
2004-12-28, 01:50:00,VALID,917.111,VALID,0,VALID,100,VALID,0,VALID,18.9152,VALID,12,VALID,0,
2004-12-28, 01:51:00,VALID,917.079,VALID,0,VALID,100,VALID,0,VALID,18.9051,VALID,12,VALID,0,
2004-12-28, 01:52:00,VALID,917.061,VALID,0,VALID,100,VALID,0,VALID,18.9254,VALID,12,VALID,0,
2004-12-28, 01:53:00,VALID,917.019,VALID,0,VALID,100,VALID,0,VALID,18.9251,VALID,12,VALID,0,
2004-12-28, 01:54:00,VALID,917.003,VALID,0,VALID,100,VALID,0.0339617,VALID,18.909,VALID,12,VALID,0,
2004-12-28, 01:55:00,VALID,916.971,VALID,0,VALID,100,VALID,0,VALID,18.9023,VALID,12,VALID,0,
2004-12-28, 01:56:00,VALID,916.957,VALID,0,VALID,100,VALID,0.0169808,VALID,18.8988,VALID,12,VALID,0.0712426,
2004-12-28, 01:57:00,VALID,916.935,VALID,0,VALID,100,VALID,0,VALID,18.8866,VALID,20,VALID,0.413876,
2004-12-28, 01:58:00,VALID,916.923,VALID,0,VALID,100,VALID,0,VALID,18.8573,VALID,65,VALID,0.476207,
2004-12-28, 01:59:00,VALID,916.888,VALID,0,VALID,100,VALID,0,VALID,18.8412,VALID,66,VALID,0.554501,
2004-12-28, 02:00:01,VALID,916.861,VALID,0,VALID,100,VALID,0.0169808,VALID,18.8183,VALID,73,VALID,0.557575,
2004-12-28, 02:01:01,VALID,916.856,VALID,0,VALID,100,VALID,0,VALID,18.8059,VALID,73,VALID,0.603198,
2004-12-28, 02:02:00,VALID,916.843,VALID,0,VALID,100,VALID,0.0169808,VALID,18.793,VALID,73,VALID,0.532924,
2004-12-28, 02:03:00,VALID,916.839,VALID,0,VALID,100,VALID,0.0339617,VALID,18.7865,VALID,73,VALID,0.427401,
2004-12-28, 02:04:01,VALID,916.814,VALID,0,VALID,100,VALID,0.0509425,VALID,18.7821,VALID,73,VALID,0.354833,
2004-12-28, 02:05:01,VALID,916.805,VALID,0,VALID,100,VALID,0.0849042,VALID,18.7754,VALID,73,VALID,0.441051,
2004-12-28, 02:06:00,VALID,916.788,VALID,0,VALID,100,VALID,0.0849042,VALID,18.7694,VALID,73,VALID,0.603609,
2004-12-28, 02:07:00,VALID,916.768,VALID,0,VALID,100,VALID,0.0679233,VALID,18.7789,VALID,73,VALID,0.511133,
2004-12-28, 02:08:00,VALID,916.767,VALID,0,VALID,100,VALID,0.0849042,VALID,18.7948,VALID,73,VALID,0.521662,
2004-12-28, 02:09:01,VALID,916.756,VALID,0,VALID,100,VALID,0.101885,VALID,18.7844,VALID,73,VALID,0.661882,
2004-12-28, 02:10:01,VALID,916.743,VALID,0,VALID,100,VALID,0.0849042,VALID,18.7752,VALID,73,VALID,0.842478,
2004-12-28, 02:11:01,VALID,916.725,VALID,0,VALID,100,VALID,0.0849042,VALID,18.7881,VALID,73,VALID,0.840701,
2004-12-28, 02:12:01,VALID,916.696,VALID,0,VALID,100,VALID,0.0849042,VALID,18.7789,VALID,73,VALID,0.784108,
2004-12-28, 02:13:00,VALID,916.685,VALID,0,VALID,100,VALID,0.101885,VALID,18.7819,VALID,73,VALID,0.832775,
2004-12-28, 02:14:00,VALID,916.669,VALID,0,VALID,100,VALID,0.101885,VALID,18.7816,VALID,73,VALID,0.888021,
2004-12-28, 02:15:01,VALID,916.66,VALID,0,VALID,100,VALID,0.0679233,VALID,18.7953,VALID,68,VALID,0.711293,
2004-12-28, 02:16:00,VALID,916.635,VALID,0,VALID,100,VALID,0.0509425,VALID,18.795,VALID,66,VALID,0.382254,
2004-12-28, 02:17:00,VALID,916.628,VALID,0,VALID,100,VALID,0.0679233,VALID,18.7883,VALID,66,VALID,0.36814,
2004-12-28, 02:18:00,VALID,916.612,VALID,0,VALID,100,VALID,0.0339617,VALID,18.7824,VALID,66,VALID,0.133721,
2004-12-28, 02:19:01,VALID,916.61,VALID,0,VALID,100,VALID,-0.0169808,VALID,18.7868,VALID,68,VALID,0.260099,
2004-12-28, 02:20:00,VALID,916.595,VALID,0,VALID,100,VALID,-0.0339617,VALID,18.7803,VALID,97,VALID,0.431641,
2004-12-28, 02:21:01,VALID,916.578,VALID,0,VALID,100,VALID,-0.0679233,VALID,18.7642,VALID,143,VALID,0.375,
2004-12-28, 02:22:01,VALID,916.573,VALID,0,VALID,100,VALID,-0.0509425,VALID,18.7642,VALID,145,VALID,0.0671875,
2004-12-28, 02:23:00,VALID,916.554,VALID,0,VALID,100,VALID,-0.0509425,VALID,18.7512,VALID,145,VALID,0.130208,
2004-12-28, 02:24:00,VALID,916.541,VALID,0,VALID,100,VALID,-0.0509425,VALID,18.7517,VALID,145,VALID,0.255716,
2004-12-28, 02:25:00,VALID,916.534,VALID,0,VALID,100,VALID,-0.0509425,VALID,18.7252,VALID,145,VALID,0.159784,
2004-12-28, 02:26:00,VALID,916.528,VALID,0,VALID,100,VALID,-0.0339617,VALID,18.7155,VALID,145,VALID,0.0802557,
2004-12-28, 02:27:00,VALID,916.515,VALID,0,VALID,100,VALID,-0.0339617,VALID,18.7356,VALID,145,VALID,0.0502486,
2004-12-28, 02:28:00,VALID,916.51,VALID,0,VALID,100,VALID,-0.0679233,VALID,18.7187,VALID,145,VALID,0.113567,
2004-12-28, 02:29:00,VALID,916.503,VALID,0,VALID,100,VALID,-0.0509425,VALID,18.7358,VALID,145,VALID,0.228659,
2004-12-28, 02:30:00,VALID,916.502,VALID,0,VALID,100,VALID,-0.0339617,VALID,18.7386,VALID,145,VALID,0.305382,
2004-12-28, 02:31:01,VALID,916.487,VALID,0,VALID,100,VALID,0,VALID,18.7639,VALID,146,VALID,0.384629,
2004-12-28, 02:32:01,VALID,916.481,VALID,0,VALID,100,VALID,-0.0339617,VALID,18.787,VALID,146,VALID,0.193496,
2004-12-28, 02:33:00,VALID,916.468,VALID,0,VALID,100,VALID,-0.0339617,VALID,18.8032,VALID,146,VALID,0.0673363,
2004-12-28, 02:34:01,VALID,916.451,VALID,0,VALID,100,VALID,-0.0339617,VALID,18.8029,VALID,146,VALID,0,
2004-12-28, 02:35:00,VALID,916.429,VALID,0,VALID,100,VALID,-0.0509425,VALID,18.8128,VALID,146,VALID,0,
2004-12-28, 02:36:00,VALID,916.394,VALID,0,VALID,100,VALID,-0.0169808,VALID,18.8124,VALID,146,VALID,0,
2004-12-28, 02:37:00,VALID,916.37,VALID,0,VALID,100,VALID,-0.0339617,VALID,18.8059,VALID,146,VALID,0,
2004-12-28, 02:38:01,VALID,916.338,VALID,0,VALID,100,VALID,-0.0169808,VALID,18.8034,VALID,146,VALID,0,
2004-12-28, 02:39:01,VALID,916.332,VALID,0,VALID,100,VALID,-0.0339617,VALID,18.7801,VALID,146,VALID,0,
2004-12-28, 02:40:01,VALID,916.322,VALID,0,VALID,100,VALID,-0.0509425,VALID,18.7835,VALID,146,VALID,0,
2004-12-28, 02:41:00,VALID,916.307,VALID,0,VALID,100,VALID,-0.0169808,VALID,18.7739,VALID,146,VALID,0,
2004-12-28, 02:42:00,VALID,916.278,VALID,0,VALID,100,VALID,-0.0339617,VALID,18.7743,VALID,146,VALID,0,
2004-12-28, 02:43:01,VALID,916.262,VALID,0,VALID,100,VALID,0,VALID,18.7743,VALID,146,VALID,0,
2004-12-28, 02:44:01,VALID,916.244,VALID,0,VALID,100,VALID,-0.0339617,VALID,18.7483,VALID,146,VALID,0,
2004-12-28, 02:45:01,VALID,916.23,VALID,0,VALID,100,VALID,0,VALID,18.7418,VALID,146,VALID,0,
2004-12-28, 02:46:01,VALID,916.207,VALID,0,VALID,100,VALID,-0.0169808,VALID,18.7291,VALID,146,VALID,0,
2004-12-28, 02:47:00,VALID,916.206,VALID,0,VALID,100,VALID,-0.0169808,VALID,18.6996,VALID,146,VALID,0.0397892,
2004-12-28, 02:48:00,VALID,916.182,VALID,0,VALID,100,VALID,-0.0169808,VALID,18.6966,VALID,146,VALID,0.284201,
2004-12-28, 02:49:01,VALID,916.169,VALID,0,VALID,100,VALID,-0.0169808,VALID,18.7227,VALID,146,VALID,0.475419,
2004-12-28, 02:50:00,VALID,916.164,VALID,0,VALID,100,VALID,0,VALID,18.7254,VALID,141,VALID,0.536156,
2004-12-28, 02:51:00,VALID,916.146,VALID,0,VALID,100,VALID,0,VALID,18.709,VALID,133,VALID,0.497692,
2004-12-28, 02:52:01,VALID,916.138,VALID,0,VALID,100,VALID,-0.0679233,VALID,18.6964,VALID,121,VALID,0.422238,
2004-12-28, 02:53:00,VALID,916.121,VALID,0,VALID,100,VALID,-0.0169808,VALID,18.6701,VALID,121,VALID,0.0832698,
2004-12-28, 02:54:01,VALID,916.122,VALID,0,VALID,100,VALID,-0.0339617,VALID,18.6519,VALID,121,VALID,0,
2004-12-28, 02:55:00,VALID,916.109,VALID,0,VALID,100,VALID,-0.0509425,VALID,18.6325,VALID,121,VALID,0.0139101,
2004-12-28, 02:56:01,VALID,916.093,VALID,0,VALID,100,VALID,-0.0509425,VALID,18.6196,VALID,121,VALID,0.0257241,
2004-12-28, 02:57:00,VALID,916.075,VALID,0,VALID,100,VALID,-0.0509425,VALID,18.6094,VALID,121,VALID,0,
2004-12-28, 02:58:01,VALID,916.053,VALID,0,VALID,100,VALID,0,VALID,18.6096,VALID,121,VALID,0,
2004-12-28, 02:59:00,VALID,916.035,VALID,0,VALID,100,VALID,-0.0509425,VALID,18.584,VALID,121,VALID,0,
2004-12-28, 03:00:01,VALID,916.045,VALID,0,VALID,100,VALID,-0.101885,VALID,18.5388,VALID,121,VALID,0,
2004-12-28, 03:01:00,VALID,916.019,VALID,0,VALID,100,VALID,-0.0849042,VALID,18.5061,VALID,121,VALID,0.251453,
2004-12-28, 03:02:00,VALID,916.021,VALID,0,VALID,100,VALID,-0.0339617,VALID,18.5158,VALID,121,VALID,0.380609,
2004-12-28, 03:03:00,VALID,916.007,VALID,0,VALID,100,VALID,-0.0509425,VALID,18.5965,VALID,121,VALID,0.369141,
2004-12-28, 03:04:01,VALID,916.002,VALID,0,VALID,100,VALID,-0.0339617,VALID,18.6094,VALID,120,VALID,0.489383,
2004-12-28, 03:05:00,VALID,915.995,VALID,0,VALID,100,VALID,0,VALID,18.5838,VALID,92,VALID,0.663889,
2004-12-28, 03:06:00,VALID,915.991,VALID,0,VALID,100,VALID,-0.0169808,VALID,18.5647,VALID,92,VALID,0.945313,
2004-12-28, 03:07:01,VALID,915.979,VALID,0,VALID,100,VALID,0,VALID,18.6484,VALID,92,VALID,0.89974,
2004-12-28, 03:08:00,VALID,915.979,VALID,0,VALID,100,VALID,0,VALID,18.674,VALID,94,VALID,1.0259,
2004-12-28, 03:09:00,VALID,915.974,VALID,0,VALID,100,VALID,-0.0169808,VALID,18.6934,VALID,96,VALID,0.757431,
2004-12-28, 03:10:01,VALID,915.963,VALID,0,VALID,100,VALID,-0.0169808,VALID,18.6742,VALID,94,VALID,0.75,
2004-12-28, 03:11:01,VALID,915.961,VALID,0,VALID,100,VALID,0,VALID,18.6971,VALID,94,VALID,0.776456,
2004-12-28, 03:12:01,VALID,915.95,VALID,0,VALID,100,VALID,0,VALID,18.7028,VALID,94,VALID,0.546317,
2004-12-28, 03:13:00,VALID,915.948,VALID,0,VALID,100,VALID,0,VALID,18.6901,VALID,94,VALID,0.53125,
2004-12-28, 03:14:01,VALID,915.95,VALID,0,VALID,100,VALID,-0.0169808,VALID,18.6611,VALID,104,VALID,0.631722,
2004-12-28, 03:15:01,VALID,915.96,VALID,0,VALID,100,VALID,0,VALID,18.6673,VALID,118,VALID,0.575462,
2004-12-28, 03:16:00,VALID,915.949,VALID,0,VALID,100,VALID,-0.0169808,VALID,18.6479,VALID,120,VALID,0.607777,
2004-12-28, 03:17:00,VALID,915.943,VALID,0,VALID,100,VALID,-0.0169808,VALID,18.6318,VALID,121,VALID,0.60119,
2004-12-28, 03:18:01,VALID,915.948,VALID,0,VALID,100,VALID,-0.0169808,VALID,18.6159,VALID,122,VALID,0.737326,
2004-12-28, 03:19:00,VALID,915.95,VALID,0,VALID,100,VALID,-0.0169808,VALID,18.6094,VALID,133,VALID,0.873183,
2004-12-28, 03:20:00,VALID,915.952,VALID,0,VALID,100,VALID,-0.0339617,VALID,18.6163,VALID,135,VALID,0.694404,
2004-12-28, 03:21:00,VALID,915.938,VALID,0,VALID,100,VALID,-0.0169808,VALID,18.6092,VALID,131,VALID,0.814024,
2004-12-28, 03:22:00,VALID,915.937,VALID,0,VALID,100,VALID,-0.0339617,VALID,18.6161,VALID,126,VALID,0.779102,
2004-12-28, 03:23:00,VALID,915.926,VALID,0,VALID,100,VALID,0,VALID,18.5965,VALID,127,VALID,0.342152,
2004-12-28, 03:24:00,VALID,915.926,VALID,0,VALID,100,VALID,-0.0339617,VALID,18.5806,VALID,125,VALID,0.551711,
2004-12-28, 03:25:00,VALID,915.913,VALID,0,VALID,100,VALID,-0.0509425,VALID,18.5674,VALID,127,VALID,0.570713,
2004-12-28, 03:26:01,VALID,915.915,VALID,0,VALID,100,VALID,-0.0509425,VALID,18.5714,VALID,133,VALID,0.596007,
2004-12-28, 03:27:01,VALID,915.915,VALID,0,VALID,100,VALID,-0.0509425,VALID,18.5515,VALID,133,VALID,0.741602,
2004-12-28, 03:28:01,VALID,915.913,VALID,0,VALID,100,VALID,-0.0339617,VALID,18.555,VALID,134,VALID,0.513719,
2004-12-28, 03:29:00,VALID,915.918,VALID,0,VALID,100,VALID,-0.0339617,VALID,18.5386,VALID,135,VALID,0.270349,
2004-12-28, 03:30:00,VALID,915.934,VALID,0,VALID,100,VALID,-0.0169808,VALID,18.5515,VALID,136,VALID,0.299107,
2004-12-28, 03:31:01,VALID,915.939,VALID,0,VALID,100,VALID,-0.0339617,VALID,18.5128,VALID,136,VALID,0.226963,
2004-12-28, 03:32:01,VALID,915.937,VALID,0,VALID,100,VALID,0,VALID,18.4971,VALID,136,VALID,0.0928199,
2004-12-28, 03:33:01,VALID,915.917,VALID,0,VALID,100,VALID,-0.0339617,VALID,18.4807,VALID,136,VALID,0,
2004-12-28, 03:34:00,VALID,915.91,VALID,0,VALID,100,VALID,-0.0509425,VALID,18.4611,VALID,136,VALID,0.315589,
2004-12-28, 03:35:00,VALID,915.879,VALID,0,VALID,100,VALID,0,VALID,18.4512,VALID,136,VALID,0.510356,
2004-12-28, 03:36:01,VALID,915.871,VALID,0,VALID,100,VALID,-0.0339617,VALID,18.4417,VALID,140,VALID,0.454799,
2004-12-28, 03:37:01,VALID,915.862,VALID,0,VALID,100,VALID,-0.0509425,VALID,18.4452,VALID,142,VALID,0.681362,
2004-12-28, 03:38:01,VALID,915.848,VALID,0,VALID,100,VALID,-0.0679233,VALID,18.442,VALID,142,VALID,0.42121,
2004-12-28, 03:39:01,VALID,915.827,VALID,0,VALID,100,VALID,-0.0509425,VALID,18.4385,VALID,140,VALID,0.494141,
2004-12-28, 03:40:00,VALID,915.824,VALID,0,VALID,100,VALID,0,VALID,18.4673,VALID,131,VALID,0.754687,